{"data":{"norad_id":65634,"intl_designator":"2025-210N","name":"STARLINK-35123","alt_names":[],"object_type":"PAYLOAD","status":"ACTIVE","operator":null,"country":"US","launch_date":"2025-09-18","launch_site_code":"AFETR","launch_vehicle":null,"mission":null,"orbit_class":"UNKNOWN","rcs_meters":null,"size_class":null,"mass_kg":null,"dimensions":null,"purposes":["comms"],"wikipedia_slug":null,"has_3d_model":false,"image_url":null,"decayed_at":null,"tle_current":{"epoch":"2026-09-19T23:48:00.995616Z","epoch_age_seconds":152654,"freshness":"FRESH","line1":"1 65634U 25210N   26262.99167819  .00007429  00000+0  25080-3 0  9991","line2":"2 65634  53.1573 123.5686 0001086  86.0888 274.0237 15.31714433 57496","mean_motion":15.31714433,"eccentricity":0.0001086,"inclination_deg":53.1573,"raan_deg":123.5686,"arg_perigee_deg":86.0888,"mean_anomaly_deg":274.0237,"bstar":0.0002508,"rev_number":5749,"period_min":94.012302096,"perigee_km":469.95318817221,"apogee_km":471.44075491083,"semimajor_km":6848.8339715415,"source":"CELESTRAK","updated_at":"2026-09-21T09:00:35.674966Z"}}}